Regional Weather Roundup
Issued by NWS

Home | Current Version | Previous Version | Text Only | Print | Product List | Glossary Off
Versions: 1 2 3 4 5 6 7 8 9 10 11 12 13 14 15 16 17 18 19 20 21 22 23 24 25 26 27 28 29 30 31 32 33 34 35 36 37 38 39 40 41 42 43 44 45 46 47 48 49 50

000
ASUS43 KOAX 100602
RWRNE

WEATHER ROUNDUP FOR NEBRASKA
NATIONAL WEATHER SERVICE OMAHA NE
1200 AM CST SAT DEC 10 2016

NOTES: SATELLITE DATA IS BEING USED TO AUGMENT CLOUD COVER ABOVE
       12000 FEET.
       "FAIR" INDICATES FEW OR NO CLOUDS BELOW 12,000 FEET WITH NO
       SIGNIFICANT WEATHER AND/OR OBSTRUCTIONS TO VISIBILITY.

  * THESE STATIONS DO NOT REPORT WEATHER SUCH AS RAIN...SNOW OR FOG.

NEZ001>004-019>022-054>056-100700-
NEBRASKA PANHANDLE

CITY           SKY/WX    TMP DP  RH WIND       PRES   REMARKS
SCOTTSBLUFF    CLOUDY    13   5  70 E18       30.13F WCI  -4
6HR MIN TEMP:  13; 6HR MAX TEMP:  19;

ALLIANCE       CLOUDY     8   3  80 SE7       30.17F WCI  -3
6HR MIN TEMP:   6; 6HR MAX TEMP:  10; 6HR PCP: TRACE;

CHADRON        LGT SNOW   5   0  79 NE7       30.23F WCI  -7
6HR MIN TEMP:   4; 6HR MAX TEMP:   5; 6HR PCP: TRACE;

KIMBALL        CLOUDY    20  17  85 S8        30.09F WCI  11
SIDNEY         CLOUDY    20  13  74 SE5       30.15F WCI  13
6HR MIN TEMP:  17; 6HR MAX TEMP:  20;

$$

NEZ057>060-069>072-079>082-100700-
SOUTHWEST NEBRASKA

CITY           SKY/WX    TMP DP  RH WIND       PRES   REMARKS
NORTH PLATTE   CLOUDY    16  11  80 SE9       30.27F WCI   4
6HR MIN TEMP:  11; 6HR MAX TEMP:  19;

IMPERIAL       CLOUDY    19  13  77 SE10      30.21F WCI   7
6HR MIN TEMP:  18; 6HR MAX TEMP:  25;

LEXINGTON      CLOUDY    13   9  85 SE3       30.34S
MCCOOK         CLOUDY    14  10  84 NE6       30.30R WCI   5
6HR MIN TEMP:  13; 6HR MAX TEMP:  22;

OGALLALA       CLOUDY    19  14  79 NE6       30.22S WCI  11
$$

NEZ005>010-023>029-035>040-094-100700-
NORTH CENTRAL NEBRASKA

CITY           SKY/WX    TMP DP  RH WIND       PRES   REMARKS
VALENTINE      CLOUDY     5   1  83 NE7       30.36F WCI  -7
6HR MIN TEMP:   5; 6HR MAX TEMP:   9;

AINSWORTH      LGT SNOW   9   7  92 E5        30.36S WCI   1
BROKEN BOW     CLOUDY    18  13  80 S5        30.33R WCI  11
6HR MIN TEMP:   7; 6HR MAX TEMP:  20;

O`NEILL        CLOUDY    11   9  90 NE7       30.41S WCI   0
ORD            CLOUDY    11   7  84 CALM      30.38R
6HR MIN TEMP:   8; 6HR MAX TEMP:  21;

THEDFORD       FLURRIES  10   8  89 NE3       30.30F
$$

NEZ041-046>049-061>064-073>077-083>087-100700-
SOUTH CENTRAL NEBRASKA

CITY           SKY/WX    TMP DP  RH WIND       PRES   REMARKS
GRAND ISLAND   CLOUDY    19  14  81 S8        30.40S WCI   9
6HR MIN TEMP:  16; 6HR MAX TEMP:  22;

AURORA         CLOUDY    17  12  82 S3        30.41S
HASTINGS       CLOUDY    17  12  80 E6        30.40R WCI   9
6HR MIN TEMP:  17; 6HR MAX TEMP:  21;

HEBRON         CLOUDY    15  12  85 CALM      30.44S
HOLDREGE       CLOUDY    12   9  85 E3        30.35S
KEARNEY *      CLOUDY    10   5  79 CALM      30.38R
YORK           CLOUDY    18  14  86 S5        30.42F WCI  11
$$

NEZ011>018-030>034-042>045-100700-
NORTHEAST NEBRASKA

CITY           SKY/WX    TMP DP  RH WIND       PRES   REMARKS
NORFOLK        CLOUDY    13   8  81 E3        30.43F
6HR MIN TEMP:  13; 6HR MAX TEMP:  18;

ALBION         CLOUDY    12   8  83 CALM      30.42R
BLAIR          CLOUDY    22  15  73 SE3       30.46F
FREMONT        CLOUDY    22  13  70 SE5       30.47F WCI  15
TEKAMAH        CLOUDY    21  13  71 CALM      30.49F
6HR MIN TEMP:  19; 6HR MAX TEMP:  21;

WAYNE          CLOUDY    18  13  81 SE3       30.46F
$$

NEZ050>053-065>068-078-088>093-100700-
SOUTHEAST NEBRASKA

CITY           SKY/WX    TMP DP  RH WIND       PRES   REMARKS
LINCOLN        CLOUDY    23  15  71 E5        30.47F WCI  17
6HR MIN TEMP:  23; 6HR MAX TEMP:  23;

OMAHA EPPLEY   CLOUDY    23  12  62 SE6       30.50S WCI  16
6HR MIN TEMP:  22; 6HR MAX TEMP:  23;

BEATRICE       CLOUDY    25  15  65 SE3       30.45F
FALLS CITY     CLOUDY    25  15  66 SE5       30.49S WCI  19
6HR MIN TEMP:  24; 6HR MAX TEMP:  25;

NEBRASKA CITY  CLOUDY    24  11  58 CALM      30.48S
PLATTSMOUTH    CLOUDY    23  11  60 SE3       30.49R
$$

NEZ044-045-051>053-067-100700-
OMAHA AREA

CITY           SKY/WX    TMP DP  RH WIND       PRES   REMARKS
OMAHA EPPLEY   CLOUDY    23  12  62 SE6       30.50S WCI  16
6HR MIN TEMP:  22; 6HR MAX TEMP:  23;

BLAIR          CLOUDY    22  15  73 SE3       30.46F
FREMONT        CLOUDY    22  13  70 SE5       30.47F WCI  15
MILLARD        CLOUDY    25  15  66 CALM      30.49S
OFFUTT AFB     CLOUDY    22  14  71 E6        30.49R WCI  15
PLATTSMOUTH    CLOUDY    23  11  60 SE3       30.49R
WAHOO          CLOUDY    22  14  72 SE5       30.46F WCI  15
$$




USA.gov is the U.S. government's official web portal to all federal, state and local government web resources and services.